Regional Weather Roundup
Issued by NWS

Home | Current Version | Previous Version | Graphics & Text | Print | Product List | Glossary On
Versions: 1 2 3 4 5 6 7 8 9 10 11 12 13 14 15 16 17 18 19 20 21 22 23 24 25 26 27 28 29 30 31 32 33 34 35 36 37 38 39 40 41 42 43 44 45 46 47 48 49 50
000
ASUS43 KFSD 241802
RWRSD

WEATHER ROUNDUP FOR SOUTH DAKOTA
NATIONAL WEATHER SERVICE SIOUX FALLS SD
1200 PM CST MON NOV 24 2014

NOTE: "FAIR" INDICATES FEW OR NO CLOUDS BELOW 12,000 FEET WITH NO
SIGNIFICANT WEATHER AND/OR OBSTRUCTIONS TO VISIBILITY.


SDZ001>005-009-010-012>017-241900-
NORTHWEST AND NORTH CENTRAL SOUTH DAKOTA

CITY           SKY/WX    TMP DP  RH WIND       PRES   REMARKS
BUFFALO          N/A     30  20  66 NW21      29.83R WCI  17
FAITH            N/A     27  15  61 NW14      29.90R WCI  16
MOBRIDGE       SUNNY     24  10  55 NW22G28   29.86R WCI   9
$$

SDZ012>016-024>037-041>051-057-063-072>074-241900-
SOUTHWEST AND SOUTH CENTRAL SOUTH DAKOTA

CITY           SKY/WX    TMP DP  RH WIND       PRES   REMARKS
RAPID CTY ARPT LGT SNOW  28  24  85 NW9       29.89S FOG     WCI  19
PIERRE         SUNNY     26  10  50 NW16      29.89R WCI  14
CUSTER         LGT SNOW  29  24  82 VRB5      29.81R VSB 3/4 WCI  24
ELLSWORTH AFB  LGT SNOW  28  25  91 N12       29.88  VSB 7/8 WCI  17
PHILIP         SUNNY    N/A N/A N/A W9        29.93R
PINE RIDGE     CLOUDY    33  22  63 NW7       29.89R WCI  27
WINNER         FAIR      29  10  45 NW21G29   29.87R WCI  16
$$

SDZ004>011-016>023-039-040-241900-
NORTHEAST SOUTH DAKOTA

CITY           SKY/WX    TMP DP  RH WIND       PRES   REMARKS
ABERDEEN       SUNNY     23  12  62 N25G33    29.82R WCI   7
WATERTOWN      LGT SNOW  14   8  77 NW28      29.69R WCI  -6
SISSETON         N/A     16   8  71 N32G40    29.71R WCI  -5
$$

SDZ017-020-022-023-036>040-048>070-241900-
SOUTHEAST SOUTH DAKOTA

CITY           SKY/WX    TMP DP  RH WIND       PRES   REMARKS
SIOUX FALLS    FLURRIES  20  12  71 NW26G32   29.69R WCI   2
HURON          SUNNY     22  11  62 NW30G40   29.79R WCI   4
CHAMBERLAIN    SUNNY     26  12  56 NW22G29   29.85R WCI  11
MITCHELL       SUNNY     26  12  55 NW28G36   29.81R WCI  10
YANKTON        SUNNY    N/A N/A N/A NW28G38   29.75S
$$

ABBREVIATIONS USED IN REMARKS
   TC - TEMPERATURE IN CELSIUS
  WCI - WIND CHILL INDEX
   HX - HEAT INDEX
  VSB - VISIBILITY




USA.gov is the U.S. government's official web portal to all federal, state and local government web resources and services.